Regional Weather Roundup
Issued by NWS

Home | Current Version | Previous Version | Graphics & Text | Print | Product List | Glossary On
Versions: 1 2 3 4 5 6 7 8 9 10 11 12 13 14 15 16 17 18 19 20 21 22 23 24 25 26 27 28 29 30 31 32 33 34 35 36 37 38 39 40 41 42 43 44 45 46 47 48 49 50
000
ASUS43 KLMK 222102
RWRKY
KENTUCKY REGIONAL WEATHER ROUNDUP
NATIONAL WEATHER SERVICE LOUISVILLE KY
500 PM EDT SUN OCT 22 2017

NOTE "FAIR" INDICATES FEW OR NO CLOUDS BELOW 12,000 FEET
WITH NO SIGNIFICANT WEATHER AND/OR OBSTRUCTIONS TO VISIBILITY.

KYZ001>023-026-027-061>063-070>075-222200-
WESTERN AND SOUTH CENTRAL KENTUCKY

CITY           SKY/WX    TMP DP  RH WIND       PRES   REMARKS
PADUCAH        LGT RAIN  75  61  61 S8        29.94F
HENDERSON      CLOUDY    77  61  57 S12G21    29.99F
OWENSBORO      CLOUDY    77  60  55 S15G22    30.00F
HOPKINSVILLE   NOT AVBL
BOWLING GREEN  LGT RAIN  77  61  57 S14       30.05F
GLASGOW        NOT AVBL
$$

KYZ024-025-028>034-038-045-046-053-222200-
NORTH CENTRAL KENTUCKY

CITY           SKY/WX    TMP DP  RH WIND       PRES   REMARKS
LOUISVILLE/SDF PTSUNNY   77  57  50 S10       30.07F
LOUISVILLE/LOU CLOUDY    76  59  55 S10       30.08F
FORT KNOX      NOT AVBL
$$

KYZ035>037-039>044-047>052-055>060-089>105-222200-
NORTHEAST KENTUCKY

CITY           SKY/WX    TMP DP  RH WIND       PRES   REMARKS
LEXINGTON      CLOUDY    75  53  46 S14       30.13F
COVINGTON      PTSUNNY   73  55  53 S13       30.11F
FRANKFORT      PTSUNNY   76  53  44 S15       30.10F
$$

KYZ054-064>069-076>088-106>120-222200-
SOUTHEAST KENTUCKY

CITY           SKY/WX    TMP DP  RH WIND       PRES   REMARKS
JACKSON        CLOUDY    76  49  38 CALM      30.17F
LONDON         SUNNY     75  50  41 S14       30.16F
SOMERSET       NOT AVBL
MIDDLESBORO    MOSUNNY   75  51  43 S3        30.18S
MONTICELLO     CLOUDY    75  59  57 E8        30.14F
$$





USA.gov is the U.S. government's official web portal to all federal, state and local government web resources and services.